Weather in Ragozino

Russia / Omsk Oblast     56°56′21″N   75°56′15″E
temp.,
°C
wind,
m/s
gust,
m/s
humid.,
%
clouds,
%
prec.,
mm/h
press.,
hPa
HPBL,
m
28 november, sun
sun2800:00−2wsw5139399 1.1 1020803
03:00−2wsw51191100 0.1 1022852
06:00−3wsw51192100 0.2 1024711
09:00−5wsw41194100 0.1 1026564
12:00−4wsw4109294 0.1 1027493
15:00−4wsw4109399 0.1 1029488
18:00−6sw389692 0.1 1030296
21:00−9sw299873 0.0 1031168
29 november, mon
mon2900:00−9sw3109674 0.0 1031195
03:00−10sw31093100 0.0 1030207
06:00−9ssw31282100 0.0 1029284
09:00−9ssw31382100 0.0 1028295
12:00−6ssw41381100 0.0 1027396
15:00−6ssw41178100 0.0 1025366
18:00−8ssw4128346 0.0 1025299
21:00−9ssw412845 0.0 1024264
30 november, tue
tue3000:00−9sw3128217 0.0 1024280
03:00−9sw311835 0.0 1023253
06:00−9sw31086100 0.0 1023214
09:00−5sw31089100 0.0 1023251
12:00−3sw31089100 0.0 1023300
15:00−2sw31089100 0.0 1023305
18:00−3ssw3890100 0.0 1023250
21:00−3ssw3890100 0.0 1024227
1 december, wed
wed100:00−4ssw398666 0.0 1023247
03:00−11s3988100 0.0 1023152
06:00−12s311907 0.0 1021190
09:00−10ssw4138863 0.0 1020271
12:00−7ssw4138699 0.0 1019339
15:00−6ssw41483100 0.0 1017388
18:00−6ssw41382100 0.0 1017321
21:00−7ssw41382100 0.0 1017300
2 december, thu
thu200:00−6ssw41380100 0.0 1016325
03:00−5ssw31282100 0.0 1015299
06:00−5s31083100 0.0 1014256
09:00−6s31182100 0.0 1013250
12:00−4s41478100 0.0 1011360
15:00−2s41481100 0.0 1009405
18:00−2s51582100 0.0 1007419
21:00−1s51584100 0.0 1005443